Regional Weather Roundup
Issued by NWS

Home | Current Version | Previous Version | Graphics & Text | Print | Product List | Glossary On
Versions: 1 2 3 4 5 6 7 8 9 10 11 12 13 14 15 16 17 18 19 20 21 22 23 24 25 26 27 28
000
ASUS45 KCYS 250610
RWRWY

WYOMING REGIONAL WEATHER ROUNDUP
NATIONAL WEATHER SERVICE CHEYENNE WY
1200 AM MDT WED MAY 25 2016

NOTE:  "FAIR" INDICATES FEW OR NO CLOUDS BELOW 12,000 FEET
WITH NO SIGNIFICANT WEATHER AND/OR OBSTRUCTIONS TO VISIBILITY.

WYZ001-250700-
YELLOWSTONE NATIONAL PARK

CITY           SKY/WX    TMP DP  RH WIND       PRES   REMARKS
LK YELLOWSTONE   N/A     34  32  92 CALM      30.03R
6HR MIN TEMP:  34; 6HR MAX TEMP:  39; 6HR PCP:  0.13;

W YELLOWSTONE  NOT AVBL

$$
WYZ002>013-054>058-071-098>099-250700-
NORTHERN WYOMING

CITY           SKY/WX    TMP DP  RH WIND       PRES   REMARKS
JACKSON        CLOUDY    39  39 100 SW3       30.00R
CODY           CLOUDY    48  45  87 CALM      29.92R
GREYBULL       CLOUDY    53  49  86 W5        29.88S
6HR MIN TEMP:  52; 6HR MAX TEMP:  66; 6HR PCP:  0.07;

WORLAND        FAIR      47  46  97 S7        29.91R
6HR MIN TEMP:  47; 6HR MAX TEMP:  62; 6HR PCP:  0.29;

SHERIDAN       CLOUDY    50  46  86 NW12      29.90S
6HR MIN TEMP:  49; 6HR MAX TEMP:  63; 6HR PCP:  0.19;

BUFFALO        CLOUDY    48  44  86 NW6       29.92S
6HR MIN TEMP:  46; 6HR MAX TEMP:  62; 6HR PCP:  0.11;

GILLETTE       FAIR      46  45  96 CALM      29.86R
6HR MIN TEMP:  43; 6HR MAX TEMP:  57; 6HR PCP:  0.12;

HULETT         FAIR      50  46  87 E6        29.86F
NEWCASTLE      FAIR      50  45  81 N8        29.88R

$$
WYZ014>020-022>026-101>103-250700-
CENTRAL WYOMING

CITY           SKY/WX    TMP DP  RH WIND       PRES   REMARKS
BIG PINEY      MOCLDY    38  36  92 N5        30.02S WCI  34
6HR MIN TEMP:  38; 6HR MAX TEMP:  47; 6HR PCP:  0.02;

PINEDALE       FAIR      36  36 100 CALM      30.01F
DUBOIS         CLOUDY    39  32  75 NW8       29.96F WCI  34
LANDER         FAIR      48  38  68 CALM      29.92S
6HR MIN TEMP:  44; 6HR MAX TEMP:  54;

RIVERTON       FAIR      47  39  74 CALM      29.93F
6HR MIN TEMP:  45; 6HR MAX TEMP:  58;

CASPER         FAIR      48  39  71 N8        29.93S
6HR MIN TEMP:  47; 6HR MAX TEMP:  71; 6HR PCP: TRACE;

DOUGLAS        FAIR      49  41  74 NW6       29.92R
6HR MIN TEMP:  49; 6HR MAX TEMP:  66;


$$
WYZ021-027>030-104>119-250700-
SOUTHERN WYOMING

CITY           SKY/WX    TMP DP  RH WIND       PRES   REMARKS
EVANSTON       FAIR      38  32  79 S6        30.01F WCI  33
6HR MIN TEMP:  37; 6HR MAX TEMP:  54; 6HR PCP: TRACE;

KEMMERER         N/A     37  36  93 CALM      30.02S
FORT BRIDGER   CLEAR     37  37 100 SW6       30.04F WCI  33
ROCK SPRINGS   FAIR      38  35  89 S3        30.01F
6HR MIN TEMP:  38; 6HR MAX TEMP:  56; 6HR PCP: TRACE;

DIXON          CLOUDY    51  36  57 NW10G23   30.05R
RAWLINS        FAIR      45  36  70 W14       30.01S
6HR MIN TEMP:  43; 6HR MAX TEMP:  68;

SARATOGA       MOCLDY    45  36  70 N14       30.03R
LARAMIE        FAIR      44  32  62 N12       30.00R
6HR MIN TEMP:  44; 6HR MAX TEMP:  63;

CHEYENNE       FAIR      53  34  48 NW12G20   29.94R
6HR MIN TEMP:  49; 6HR MAX TEMP:  58; 6HR PCP: TRACE;

TORRINGTON     FAIR      52  45  77 NW9       29.90R
6HR MIN TEMP:  51; 6HR MAX TEMP:  73;

PINE BLUFFS    FAIR      46  45  93 NW15      29.92R

$$




USA.gov is the U.S. government's official web portal to all federal, state and local government web resources and services.